Regional Weather Roundup
Issued by NWS

Home | Current Version | Previous Version | Graphics & Text | Print | Product List | Glossary On
Versions: 1 2 3 4 5 6 7 8 9 10 11 12 13 14 15 16 17 18 19 20 21 22 23 24 25 26 27 28 29 30 31 32 33 34 35 36 37 38 39 40 41 42 43 44 45 46 47 48 49 50
000
ASUS43 KLOT 280612
RWRIL

ILLINOIS REGIONAL WEATHER ROUNDUP
NATIONAL WEATHER SERVICE CHICAGO/ROMEOVILLE IL
100 AM CDT FRI AUG 28 2015

NOTE: "FAIR" INDICATES FEW OR NO CLOUDS BELOW 12,000 FEET WITH NO
SIGNIFICANT WEATHER AND/OR OBSTRUCTIONS TO VISIBILITY.

* THESE STATIONS ARE NOT UNDER NWS QUALITY CONTROL. THEY ALSO MAY NOT
  REPORT WEATHER SUCH AS PRECIPITATION OR FOG.

ILZ001-002-007-009-015-016-024-280700-
NORTHWEST ILLINOIS

CITY           SKY/WX    TMP DP  RH WIND       PRES   REMARKS
MOLINE         FAIR      62  58  86 E6        30.08F
6HR MIN TEMP:  61; 6HR MAX TEMP:  70;

STERLING*      FAIR      61  55  82 SE5       30.11S
SAVANNA*       FAIR      63  58  83 SE3       30.10F
$$

ILZ003-004-008-010-011-017-018-280700-
NORTH CENTRAL ILLINOIS

CITY           SKY/WX    TMP DP  RH WIND       PRES   REMARKS
ROCKFORD       MOCLDY    59  55  87 SE5       30.13F
6HR MIN TEMP:  58; 6HR MAX TEMP:  69;

FREEPORT*      FAIR      58  56  92 S6        30.14S
ROCHELLE*      FAIR      56  54  95 SE3       30.13F FOG
DE KALB*       MOCLDY    59  56  91 SE7       30.15S FOG
PERU*          FAIR      60  56  88 E5        30.14R
$$

ILZ005-006-012>014-019>023-280700-
NORTHEAST ILLINOIS

CITY           SKY/WX    TMP DP  RH WIND       PRES   REMARKS
CHICAGO-OHARE  FAIR      59  55  87 SE3       30.13S
6HR MIN TEMP:  59; 6HR MAX TEMP:  69;

CHICAGO-MIDWAY FAIR      65  55  70 S3        30.14R
6HR MIN TEMP:  65; 6HR MAX TEMP:  70;

AURORA         FAIR      54  52  93 CALM      30.15R FOG
6HR MIN TEMP:  54; 6HR MAX TEMP:  68;

LANSING*       FAIR      58  55  89 CALM      30.15R
JOLIET*        FAIR      62  57  85 E5        30.14S
WAUKEGAN       FAIR      55  54  96 CALM      30.13S FOG
6HR MIN TEMP:  54; 6HR MAX TEMP:  64;

DUPAGE AIRPORT FAIR      56  53  90 CALM      30.13F
6HR MIN TEMP:  56; 6HR MAX TEMP:  69;

KANKAKEE*      FAIR      57  56  94 CALM      30.14S
WHEELING       FAIR      58  53  84 CALM      30.15S
6HR MIN TEMP:  57; 6HR MAX TEMP:  67;

MORRIS*        FAIR      57  55  92 E3        30.13S
ROMEOVILLE*    FAIR      59  55  85 SE6       30.14S
NORTHERLY ISL    N/A     63  59  87 S5          N/A
$$

LMZ740>746-280700-
SOUTHERN LAKE MICHIGAN

STATION/POSITION SKY/WX   TEMP    WIND        PRES    VSBY  WAVE
                          AIR SEA DIR/SP/G                  HT/PER
                          (F)     (DEG/KT/KT) (MB)    (MI)  (FT/S)
SOUTHERN BUOY              66 68  160/ 10/ 12 1020.5R         1
WILMETTE HARBOR            61 61  340/  2/  4   N/A           1
HARRISON CRIB              67     130/ 14/ 15   N/A
BURNHAM HARBOR             63     160/  4/  7   N/A
CALUMET HARBOR             66     120/  4/  5   N/A
BURNS HARBOR               62      80/  7/  8 1021.0
MICHIGAN CITY              60      80/  3/  4   N/A
MICHIGAN CITY 6N           65 71  140/ 10/ 10   N/A           1
ST. JOSEPH                 64 71  180/ 12/ 14   N/A           1
$$

ILZ025>027-034>036-040-047-049-050-058-095>099-280700-
WEST-CENTRAL ILLINOIS

CITY           SKY/WX    TMP DP  RH WIND       PRES   REMARKS
QUINCY         FAIR      62  58  86 SE7       30.09S
GALESBURG*     FAIR      60  57  89 E3        30.10F
MACOMB*        FAIR      55  55  99 CALM      30.12S
JACKSONVILLE*  FAIR      61  58  90 SE5       30.10S
PITTSFIELD*    FAIR      59  57  94 CALM      30.10S
$$

ILZ028>032-037-038-041>044-048-051>054-059>061-280700-
CENTRAL ILLINOIS

CITY           SKY/WX    TMP DP  RH WIND       PRES   REMARKS
PONTIAC        FAIR      59  58  96 E6        30.14S
BLOOMINGTON    FAIR      60  57  89 SE7       30.14S
DECATUR        FAIR      59  55  87 E3        30.12S
PEORIA         FAIR      64  58  80 NE5       30.11R
6HR MIN TEMP:  63; 6HR MAX TEMP:  74;

LACON*         FAIR      60  56  87 CALM      30.12R
LINCOLN*       FAIR      60  57  89 CALM      30.12S
SPRINGFIELD    FAIR      60  58  92 SE5       30.10F
6HR MIN TEMP:  59; 6HR MAX TEMP:  74;

TAYLORVILLE    FAIR      55  54  94 CALM      30.11S
$$

ILZ033-039-045-046-055>057-062-063-280700-
EAST-CENTRAL ILLINOIS

CITY           SKY/WX    TMP DP  RH WIND       PRES   REMARKS
CHAMPAIGN      FAIR      61  58  90 E5        30.13S
RANTOUL*       FAIR      64  59  83 NE5       30.13S
MATTOON        FAIR      60  56  86 CALM      30.12R
PARIS*         MOCLDY    59  58  98 CALM      30.13R
$$

ILZ079-100>102-280700-
SOUTHWEST ILLINOIS

CITY           SKY/WX    TMP DP  RH WIND       PRES   REMARKS
ALTON          FAIR      58  58  98 E3        30.10S
BELLEVILLE     CLEAR     61  61 100 CALM      30.09R
CAHOKIA*       FAIR      61  57  87 CALM      30.10R
SPARTA*        FAIR      60  59  96 CALM      30.11S
$$

ILZ064>066-069>071-074>076-080>082-084>086-088>090-092>094-280700-
SOUTH-CENTRAL ILLINOIS

CITY           SKY/WX    TMP DP  RH WIND       PRES   REMARKS
CARBONDALE     FOG       59  58  96 CALM      30.10S VSB 1/2
6HR MIN TEMP:  59; 6HR MAX TEMP:  74;

CAIRO*         FAIR      58  58 100 CALM      30.09S
EFFINGHAM*     FAIR      59  57  93 CALM      30.13R
MARION         FAIR      63  61  94 CALM      30.10F
MT. VERNON     FAIR      57  52  82 CALM      30.11S
CENTRALIA*     FAIR      57  57  99 CALM      30.11R
SALEM*         FAIR      59  57  93 CALM      30.11S
METROPOLIS*    FAIR      58  58 100 CALM      30.10R FOG
$$

ILZ067-068-072-073-078-083-087-091-280700-
SOUTHEAST ILLINOIS

CITY           SKY/WX    TMP DP  RH WIND       PRES   REMARKS
LAWRENCEVILLE  FAIR      61  59  93 CALM      30.11S
FLORA*         FAIR      58  57  95 CALM      30.12R
FAIRFIELD*     FAIR      59  58  97 CALM      30.10R
HARRISBURG*    FAIR      60  58  94 CALM      30.10S
ROBINSON*      FAIR      56  55  95 CALM      30.13R
CARMI*         FOG       57  57 100 CALM      30.09F VSB 1/2
$$

ABBREVIATIONS USED IN REMARKS
   TC - TEMPERATURE IN CELSIUS
  WCI - WIND CHILL INDEX
   HX - HEAT INDEX
  VSB - VISIBILITY
$$




USA.gov is the U.S. government's official web portal to all federal, state and local government web resources and services.